Gulkana, AK

9:44 PM AKDT on May 27, 2018 (GMT -0800)
Gulkana

Weather History for PAGK - October, 2012

Change the Weather History Date:

Thursday, October 18, 2012

  Actual Average Record
Temperature  
Mean Temperature 23 °F -  
Max Temperature 30 °F 32 °F 50 °F (1957)
Min Temperature 16 °F 16 °F -19 °F (1959)
Degree Days  
Heating Degree Days 42    
Moisture  
Dew Point 12 °F    
Average Humidity 66    
Maximum Humidity 88    
Minimum Humidity 41    
Precipitation  
Precipitation 0.00 in - - ()
Snow  
Snow 0.00 in - - ()
Snow Depth 2.00 in    
Sea Level Pressure  
Sea Level Pressure 29.78 in    
Wind  
Wind Speed 5 mph (North)    
Max Wind Speed 14 mph    
Max Gust Speed 21 mph    
Visibility 10 miles    
Events      
Averages and records for this station are not official NWS values.
T = Trace of Precipitation, MM = Missing Value Source: NWS Daily Summary

Daily Weather History Graph

Daily Weather History Graph

Search for Another Location

Airport or City:

Astronomy

Oct. 18, 2012 Rise Set
Actual Time 8:36 AM AKDT 6:15 PM AKDT
Civil Twilight 7:50 AM AKDT 7:01 PM AKDT
Nautical Twilight 6:59 AM AKDT 7:53 PM AKDT
Astronomical Twilight 6:07 AM AKDT 8:44 PM AKDT
Moon 1:44 PM AKDT (10/18) 7:44 PM AKDT (10/18)
Length of Visible Light 11h 10m
Length of Day
9h 39m
Waxing Crescent, 15% of the Moon is Illuminated
Oct 18
Waxing Crescent
Oct 21
First Quarter
Oct 29
Full
Nov 6
Last Quarter
Nov 13
New

Hourly Weather History & Observations

Time (AKDT) Temp. Windchill Dew Point Humidity Pressure Visibility Wind Dir Wind Speed Gust Speed Precip Events Conditions
12:53 AM 18.0 °F 9.8 °F 10.0 °F 71% 29.62 in 10.0 mi NNE 5.8 mph - N/A   Mostly Cloudy
1:53 AM 18.0 °F 11.1 °F 10.0 °F 71% 29.64 in 10.0 mi NE 4.6 mph - N/A   Mostly Cloudy
2:53 AM 19.9 °F 11.1 °F 10.9 °F 68% 29.67 in 10.0 mi ENE 6.9 mph - N/A   Overcast
3:53 AM 19.0 °F 13.9 °F 10.9 °F 71% 29.68 in 10.0 mi NNE 3.5 mph - N/A   Overcast
4:53 AM 18.0 °F - 10.9 °F 74% 29.70 in 10.0 mi Calm Calm - N/A   Overcast
5:53 AM 17.1 °F 11.7 °F 10.9 °F 77% 29.73 in 10.0 mi NE 3.5 mph - N/A   Overcast
6:00 AM 17.6 °F - 10.4 °F 73% 29.63 in 10.0 mi Calm Calm - N/A   Overcast
6:53 AM 19.9 °F - 12.9 °F 74% 29.75 in 10.0 mi Calm Calm - N/A   Overcast
7:53 AM 18.0 °F - 12.9 °F 81% 29.78 in 10.0 mi Calm Calm - N/A   Overcast
8:53 AM 17.1 °F - 12.9 °F 84% 29.79 in 10.0 mi Calm Calm - N/A   Overcast
9:53 AM 16.0 °F 8.8 °F 12.9 °F 88% 29.80 in 10.0 mi SE 4.6 mph - N/A   Mostly Cloudy
10:53 AM 19.9 °F 14.9 °F 15.1 °F 81% 29.81 in 10.0 mi ESE 3.5 mph - N/A   Mostly Cloudy
11:53 AM 23.0 °F - 16.0 °F 74% 29.83 in 10.0 mi Calm Calm - N/A   Mostly Cloudy
12:53 PM 24.1 °F 19.7 °F 15.1 °F 69% 29.83 in 10.0 mi ENE 3.5 mph - N/A   Overcast
1:53 PM 27.0 °F - 15.1 °F 61% 29.83 in 10.0 mi Calm Calm - N/A   Mostly Cloudy
2:53 PM 28.0 °F 22.8 °F 16.0 °F 61% 29.83 in 10.0 mi North 4.6 mph - N/A   Mostly Cloudy
3:53 PM 28.9 °F - 15.1 °F 56% 29.82 in 10.0 mi Calm Calm - N/A   Mostly Cloudy
4:53 PM 30.0 °F 19.5 °F 12.9 °F 49% 29.81 in 10.0 mi North 13.8 mph - N/A   Mostly Cloudy
5:53 PM 28.0 °F 18.1 °F 12.9 °F 53% 29.81 in 10.0 mi NNW 11.5 mph - N/A   Mostly Cloudy
6:53 PM 26.1 °F 19.4 °F 12.0 °F 55% 29.82 in 10.0 mi NNW 5.8 mph - N/A   Mostly Cloudy
7:53 PM 24.1 °F 15.2 °F 10.9 °F 57% 29.83 in 10.0 mi NW 8.1 mph - N/A   Mostly Cloudy
8:53 PM 23.0 °F 13.1 °F 10.9 °F 60% 29.83 in 10.0 mi NNW 9.2 mph - N/A   Mostly Cloudy
9:27 PM 23.0 °F 13.1 °F 10.4 °F 59% 29.72 in 10.0 mi North 9.2 mph - N/A   Mostly Cloudy
9:53 PM 24.1 °F 12.5 °F 10.0 °F 55% 29.84 in 10.0 mi North 12.7 mph 20.7 mph N/A   Clear
10:53 PM 21.9 °F 14.5 °F 10.0 °F 60% 29.85 in 10.0 mi NNW 5.8 mph - N/A   Clear
11:53 PM 23.0 °F 12.4 °F 10.0 °F 58% 29.86 in 10.0 mi NNW 10.4 mph 17.3 mph N/A   Clear